Regional Weather Roundup
Issued by NWS Charleston, SC

Current Version | Previous Version | Graphics & Text | Print | Product List | Glossary On
Versions: 1 2 3 4 5 6 7 8 9 10 11 12 13 14 15 16 17 18 19 20 21 22 23 24 25 26 27 28 29 30 31 32 33 34 35 36 37 38 39 40 41 42 43 44 45 46 47 48 49 50
000
ASUS42 KCHS 310912
RWRCHS

REGIONAL WEATHER ROUNDUP
NATIONAL WEATHER SERVICE CHARLESTON SC
500 AM EDT FRI JUL 31 2015

NOTE: "FAIR" INDICATES FEW OR NO CLOUDS BELOW 12,000 FEET WITH NO
SIGNIFICANT WEATHER AND/OR OBSTRUCTIONS TO VISIBILITY.

NOT ALL STATIONS ARE QUALITY CONTROLLED BY THE NATIONAL
WEATHER SERVICE. USE DATA WITH CAUTION...ESPECIALLY
DEWPOINT OBSERVATIONS.

SCZ027-030-031-034>040-042>050-311000-
...SOUTHEAST SOUTH CAROLINA...

CITY           SKY/WX    TMP DP  RH WIND       PRES   REMARKS
N CHARLESTON   CLEAR     78  73  84 W6        29.88S
WATERFRONT PRK   N/A     80  76  87 VRB2      29.85S
MOUNT PLEASANT LGT RAIN  79  75  89 SW3       29.88F
JOHNS ISLAND   FAIR      81  75  83 W3        29.88S
PINOPOLIS      NOT AVBL
MONCKS CORNER  FAIR      79  72  78 SW5       29.88S
SUMMERVILLE    NOT AVBL
BEAUFORT MCAS  CLOUDY    79  77  94 SW3       29.88S
BEAUFORT ARPT  FAIR      79  77  94 SW5       29.88S FOG
HILTON HEAD IS PTCLDY    79  79 100 S3        29.90F FOG
WALTERBORO     SUNNY     79  73  83 CALM      29.89F
ALLENDALE      FAIR      77  75  94 CALM      29.89R

...SOUTHERN MIDLANDS AND PEE DEE...

CITY           SKY/WX    TMP DP  RH WIND       PRES   REMARKS
GEORGETOWN     NOT AVBL
KINGSTREE      NOT AVBL
ORANGEBURG     CLEAR     75  73  93 CALM      29.90R
BARNWELL       FAIR      79  75  89 CALM      29.91R
AIKEN          FAIR      75  72  88 CALM      29.94S
MANNING        CLOUDY    77  72  83 CALM      29.89R
COLUMBIA       CLOUDY    82  73  74 NW5       29.89R
SUMTER         PTCLDY    77  73  89 W2        29.87S
FLORENCE       PTCLDY    79  74  84 N6        29.88S
MYRTLE BEACH   CLOUDY    81  72  74 W6        29.89R
N MYRTLE BEACH MOCLDY    79  73  82 CALM      29.87R

$$

GAZ063-065-086>088-099>101-113>116-118-119-134>141-150-311000-
...SOUTHEAST GEORGIA...

CITY           SKY/WX    TMP DP  RH WIND       PRES   REMARKS
SAVANNAH ARPT  CLOUDY    79  75  87 SW5       29.90S
HUNTER AAF     CLOUDY    79  78  95 VRB3      29.87F
FORT STEWART   MOCLDY    79  75  87 W5        29.88
STATESBORO     PTCLDY    78  32  18 CALM      29.90S
SYLVANIA       MOSUNNY   78  77  96 CALM      29.90S
CLAXTON        FAIR      79  75  89 SW3       29.90S

...CSRA...CENTRAL AND FAR SOUTHEAST GEORGIA...

CITY           SKY/WX    TMP DP  RH WIND       PRES   REMARKS
THOMSON        PTCLDY    76  76 100 SE3       29.96R
AUGUSTA-BUSH   CLEAR     75  74  96 S5        29.89R
AUGUSTA-DANIEL CLEAR     79  73  82 CALM      29.91S
SWAINSBORO     FAIR     N/A N/A N/A CALM      29.91S
VIDALIA        CLEAR     77  75  94 W3        29.91S FOG
EASTMAN        FAIR      76  76 100 CALM      29.94R FOG
HAZLEHURST     FAIR      78  78  99 CALM      29.90F
ALMA           PTCLDY    76  75  97 SW5       29.91F FOG
WAYCROSS       CLOUDY    79  79 100 SW5       29.92S FOG
JESUP          PTSUNNY   79  77  94 W3        29.91S
BAXLEY         CLOUDY    79  77  94 SW3       29.91S FOG
BRUNSWICK      MOCLDY    79  75  89 W7        29.92S
SAINT SIMONS   MOCLDY    78  76  93 SW8       29.91R

$$

SCZ027-028-034-036>038-045-046-048>050-GAZ119-141-311000-
...LAKE AND SUPPLEMENTAL COASTAL OBSERVATIONS...

STATION/POSITION TIME  TEMP    WIND        PRES    WAVE   SWELL
                       AIR SEA DIR/SP/G            HT/PER HT/PER/DIR
                 (UTC) (F)     (DEG/KT/KT) (MB)    (FT/S) (FT/S/D)
UPR LAKE MARION  NOT AVBL
WINYAH BAY       0745   79     250/  3     1010.0
LAKE MURRAY      0800   82     320/  1/  3 1011.5F
ACE BASIN NERRS  NOT AVBL
FORT PULASKI     0800   80 87  250/  6/  7 1012.7S
SAPELO ISLAND    0800   80     240/  7     1013.0S

$$

ANZ835-935-AMZ111-154-330-350-352-354-370-450-454-472-311000-
...C-MAN AND BUOY OBSERVATIONS...

STATION/POSITION TIME  TEMP    WIND        PRES    WAVE   SWELL
                       AIR SEA DIR/SP/G            HT/PER HT/PER/DIR
                 (UTC) (F)     (DEG/KT/KT) (MB)    (FT/S) (FT/S/D)
BUOY 41004       0850   82 84  260/ 16/ 17 1011.3R   3/ 4   2/ 8
BUOY 41008       0850   82 83  260/ 10/ 10 1012.9R   2/ 7   2/110/ 7
FOLLY BEACH CMAN 0800   81     240/  8/ 12 1012.2F
CAPERS NEARSHORE 0808   81     240/ 17/ 21 1011.9F
FRIPP NEARSHORE  0800   84     260/ 10/ 12 1011.6F


STATION/POSITION TIME  TEMP    WIND        PRES    WAVE   SWELL
                       AIR SEA DIR/SP/G            HT/PER HT/PER/DIR
                 (UTC) (F)     (DEG/KT/KT) (MB)    (FT/S) (FT/S/D)
5E ST. MARYS GA  0821      84                N/A     2/ 7
FRYING PAN BUOY  0850   84 84  260/ 12/ 14 1011.7R   4/ 8   3/130/ 8
BUOY 41025       0850   83 85  160/  6/  8 1011.0F   4/ 8   3/140/ 8
CAPE LOOKOUT NC  0800   80     310/  2/  3 1010.8F
BUOY 41002       0850   81 81  220/ 29/ 35 1012.5F  10/ 9
BUOY 41010       0820   83 84  220/ 16/ 19 1015.0R
ST AUGUSTINE FL  0900   76 82  240/  5/  6 1014.5R


$$


USA.gov is the U.S. government's official web portal to all federal, state and local government web resources and services.